Time,TemperatureF,DewpointF,PressureIn,WindDirection,WindDirectionDegrees,WindSpeedMPH,WindSpeedGustMPH,Humidity,HourlyPrecipIn,Conditions,Clouds,dailyrainin,SoftwareType,DateUTC
2013-01-20 00:05:00,44.2,4.5,29.75,North,5,1.0,1.0,19,0.00,RA,,0.00,WeatherDisplay:10.37,2013-01-20 05:05:00,
2013-01-20 00:10:00,44.1,4.4,29.74,NE,50,2.0,3.0,19,0.00,CLR,,0.00,WeatherDisplay:10.37,2013-01-20 05:10:00,
2013-01-20 00:15:00,43.9,4.2,29.74,East,100,0.0,3.0,19,0.00,CLR,,0.00,WeatherDisplay:10.37,2013-01-20 05:15:00,
2013-01-20 00:25:00,43.7,4.1,29.74,ESE,110,0.0,2.0,19,0.00,CLR,,0.00,WeatherDisplay:10.37,2013-01-20 05:25:00,
2013-01-20 00:30:00,43.5,3.9,29.74,SSE,150,2.0,2.0,19,0.00,CLR,,0.00,WeatherDisplay:10.37,2013-01-20 05:30:00,
2013-01-20 00:35:00,43.5,3.9,29.74,South,176,0.0,2.0,19,0.00,CLR,,0.00,WeatherDisplay:10.37,2013-01-20 05:35:00,
2013-01-20 00:40:00,43.5,3.9,29.73,ENE,62,3.0,4.0,19,0.00,CLR,,0.00,WeatherDisplay:10.37,2013-01-20 05:40:00,
2013-01-20 00:45:00,43.6,4.0,29.72,ESE,118,3.0,4.0,19,0.00,CLR,,0.00,WeatherDisplay:10.37,2013-01-20 05:45:00,
2013-01-20 00:50:00,43.5,3.9,29.72,ESE,116,1.0,2.0,19,0.00,CLR,,0.00,WeatherDisplay:10.37,2013-01-20 05:50:00,
2013-01-20 00:55:00,43.5,3.9,29.72,East,101,3.0,5.0,19,0.00,CLR,,0.00,WeatherDisplay:10.37,2013-01-20 05:55:00,
2013-01-20 01:00:00,43.5,3.9,29.72,SE,126,2.0,5.0,19,0.00,CLR,,0.00,WeatherDisplay:10.37,2013-01-20 06:00:00,
2013-01-20 01:10:00,43.3,3.8,29.72,ESE,122,0.0,2.0,19,0.00,CLR,,0.00,WeatherDisplay:10.37,2013-01-20 06:10:00,
2013-01-20 01:15:00,43.2,3.7,29.72,ESE,115,1.0,5.0,19,0.00,CLR,,0.00,WeatherDisplay:10.37,2013-01-20 06:15:00,
2013-01-20 01:20:00,43.3,3.8,29.72,East,85,5.0,7.0,19,0.00,CLR,,0.00,WeatherDisplay:10.37,2013-01-20 06:20:00,
2013-01-20 01:25:00,43.3,3.8,29.72,East,98,0.0,0.0,19,0.00,CLR,,0.00,WeatherDisplay:10.37,2013-01-20 06:25:00,
2013-01-20 01:30:00,43.5,7.1,29.72,SE,137,0.0,5.0,22,0.00,CLR,,0.00,WeatherDisplay:10.37,2013-01-20 06:30:00,
2013-01-20 01:35:00,43.3,8.9,29.71,SE,125,1.0,4.0,24,0.00,CLR,,0.00,WeatherDisplay:10.37,2013-01-20 06:35:00,
2013-01-20 01:40:00,43.4,9.8,29.71,East,99,5.0,5.0,25,0.00,CLR,,0.00,WeatherDisplay:10.37,2013-01-20 06:40:00,
2013-01-20 01:45:00,43.5,10.8,29.72,ENE,75,0.0,5.0,26,0.00,CLR,,0.00,WeatherDisplay:10.37,2013-01-20 06:45:00,
2013-01-20 01:50:00,43.3,11.5,29.71,East,79,1.0,1.0,27,0.00,CLR,,0.00,WeatherDisplay:10.37,2013-01-20 06:50:00,
2013-01-20 01:55:00,43.3,12.4,29.71,ESE,109,0.0,1.0,28,0.00,CLR,,0.00,WeatherDisplay:10.37,2013-01-20 06:55:00,
2013-01-20 02:00:00,43.3,14.7,29.71,ESE,107,0.0,4.0,31,0.00,CLR,,0.00,WeatherDisplay:10.37,2013-01-20 07:00:00,
2013-01-20 02:05:00,43.3,14.7,29.71,ESE,113,1.0,4.0,31,0.00,CLR,,0.00,WeatherDisplay:10.37,2013-01-20 07:05:00,
2013-01-20 02:10:00,43.3,15.4,29.71,SE,124,0.0,4.0,32,0.00,CLR,,0.00,WeatherDisplay:10.37,2013-01-20 07:10:00,
2013-01-20 02:15:00,43.3,15.4,29.70,ESE,117,0.0,4.0,32,0.00,CLR,,0.00,WeatherDisplay:10.37,2013-01-20 07:15:00,
2013-01-20 02:20:00,43.1,15.9,29.71,ESE,121,3.0,4.0,33,0.00,CLR,,0.00,WeatherDisplay:10.37,2013-01-20 07:20:00,
2013-01-20 02:25:00,43.2,16.0,29.70,ESE,116,7.0,11.0,33,0.00,CLR,,0.00,WeatherDisplay:10.37,2013-01-20 07:25:00,
2013-01-20 02:30:00,43.2,16.6,29.71,ESE,105,2.0,5.0,34,0.00,CLR,,0.00,WeatherDisplay:10.37,2013-01-20 07:30:00,
2013-01-20 02:35:00,43.3,17.5,29.71,East,94,0.0,0.0,35,0.00,CLR,,0.00,WeatherDisplay:10.37,2013-01-20 07:35:00,
2013-01-20 02:40:00,43.5,17.6,29.70,SSE,151,1.0,2.0,35,0.00,CLR,,0.00,WeatherDisplay:10.37,2013-01-20 07:40:00,
2013-01-20 02:45:00,43.3,17.5,29.70,ESE,119,1.0,1.0,35,0.00,CLR,,0.00,WeatherDisplay:10.37,2013-01-20 07:45:00,
2013-01-20 02:50:00,43.3,18.1,29.70,ENE,75,1.0,1.0,36,0.00,CLR,,0.00,WeatherDisplay:10.37,2013-01-20 07:50:00,
2013-01-20 02:55:00,43.3,18.1,29.70,East,92,1.0,3.0,36,0.00,CLR,,0.00,WeatherDisplay:10.37,2013-01-20 07:55:00,
2013-01-20 03:00:00,43.3,18.8,29.70,East,90,2.0,5.0,37,0.00,CLR,,0.00,WeatherDisplay:10.37,2013-01-20 08:00:00,
2013-01-20 03:05:00,43.5,18.9,29.70,ESE,117,1.0,5.0,37,0.00,CLR,,0.00,WeatherDisplay:10.37,2013-01-20 08:05:00,
2013-01-20 03:10:00,43.5,18.9,29.70,ESE,107,6.0,6.0,37,0.00,CLR,,0.00,WeatherDisplay:10.37,2013-01-20 08:10:00,
2013-01-20 03:15:00,43.5,19.6,29.70,East,98,2.0,4.0,38,0.00,CLR,,0.00,WeatherDisplay:10.37,2013-01-20 08:15:00,
2013-01-20 03:20:00,43.3,19.4,29.70,East,98,0.0,0.0,38,0.00,CLR,,0.00,WeatherDisplay:10.37,2013-01-20 08:20:00,
2013-01-20 03:25:00,43.3,19.4,29.70,ENE,71,1.0,1.0,38,0.00,CLR,,0.00,WeatherDisplay:10.37,2013-01-20 08:25:00,
2013-01-20 03:30:00,43.2,19.8,29.70,SE,131,0.0,1.0,39,0.00,CLR,,0.00,WeatherDisplay:10.37,2013-01-20 08:30:00,
2013-01-20 03:35:00,43.2,20.4,29.70,ESE,117,1.0,2.0,40,0.00,CLR,,0.00,WeatherDisplay:10.37,2013-01-20 08:35:00,
2013-01-20 03:40:00,43.2,20.4,29.70,East,99,3.0,3.0,40,0.00,CLR,,0.00,WeatherDisplay:10.37,2013-01-20 08:40:00,
2013-01-20 03:45:00,43.2,20.4,29.70,SE,141,0.0,1.0,40,0.00,CLR,,0.00,WeatherDisplay:10.37,2013-01-20 08:45:00,
2013-01-20 03:50:00,43.0,20.3,29.70,East,99,0.0,2.0,40,0.00,CLR,,0.00,WeatherDisplay:10.37,2013-01-20 08:50:00,
2013-01-20 03:55:00,43.0,20.3,29.69,ESE,102,1.0,2.0,40,0.00,CLR,,0.00,WeatherDisplay:10.37,2013-01-20 08:55:00,
2013-01-20 04:00:00,43.0,20.9,29.69,ENE,72,0.0,2.0,41,0.00,CLR,,0.00,WeatherDisplay:10.37,2013-01-20 09:00:00,
2013-01-20 04:05:00,42.8,20.7,29.69,SSE,147,5.0,5.0,41,0.00,CLR,,0.00,WeatherDisplay:10.37,2013-01-20 09:05:00,
2013-01-20 04:10:00,42.9,21.3,29.69,ENE,64,2.0,5.0,42,0.00,CLR,,0.00,WeatherDisplay:10.37,2013-01-20 09:10:00,
2013-01-20 04:15:00,43.0,21.4,29.69,ENE,69,0.0,2.0,42,0.00,CLR,,0.00,WeatherDisplay:10.37,2013-01-20 09:15:00,
2013-01-20 04:20:00,43.0,21.4,29.69,ESE,110,2.0,2.0,42,0.00,CLR,,0.00,WeatherDisplay:10.37,2013-01-20 09:20:00,
2013-01-20 04:25:00,43.0,21.4,29.69,ESE,108,1.0,3.0,42,0.00,CLR,,0.00,WeatherDisplay:10.37,2013-01-20 09:25:00,
2013-01-20 04:30:00,43.0,21.4,29.69,NE,39,0.0,3.0,42,0.00,CLR,,0.00,WeatherDisplay:10.37,2013-01-20 09:30:00,
2013-01-20 04:35:00,43.0,22.0,29.69,NE,42,0.0,3.0,43,0.00,CLR,,0.00,WeatherDisplay:10.37,2013-01-20 09:35:00,
2013-01-20 04:40:00,43.0,22.0,29.69,SE,124,6.0,7.0,43,0.00,CLR,,0.00,WeatherDisplay:10.37,2013-01-20 09:40:00,
2013-01-20 04:45:00,43.0,22.0,29.70,ESE,102,2.0,7.0,43,0.00,CLR,,0.00,WeatherDisplay:10.37,2013-01-20 09:45:00,
2013-01-20 04:50:00,43.0,22.0,29.70,ESE,112,2.0,4.0,43,0.00,CLR,,0.00,WeatherDisplay:10.37,2013-01-20 09:50:00,
2013-01-20 04:55:00,43.0,22.0,29.70,South,173,0.0,3.0,43,0.00,CLR,,0.00,WeatherDisplay:10.37,2013-01-20 09:55:00,
2013-01-20 05:00:00,43.2,22.7,29.70,ESE,120,6.0,6.0,44,0.00,CLR,,0.00,WeatherDisplay:10.37,2013-01-20 10:00:00,
2013-01-20 05:05:00,43.3,22.9,29.70,SSE,151,5.0,6.0,44,0.00,CLR,,0.00,WeatherDisplay:10.37,2013-01-20 10:05:00,
2013-01-20 05:10:00,43.5,23.0,29.70,East,88,3.0,5.0,44,0.00,CLR,,0.00,WeatherDisplay:10.37,2013-01-20 10:10:00,
2013-01-20 05:15:00,43.5,23.0,29.70,East,101,2.0,6.0,44,0.00,CLR,,0.00,WeatherDisplay:10.37,2013-01-20 10:15:00,
2013-01-20 05:20:00,43.5,23.0,29.70,SE,133,2.0,5.0,44,0.00,CLR,,0.00,WeatherDisplay:10.37,2013-01-20 10:20:00,
2013-01-20 05:25:00,43.7,23.2,29.70,ESE,121,2.0,5.0,44,0.00,CLR,,0.00,WeatherDisplay:10.37,2013-01-20 10:25:00,
2013-01-20 05:35:00,43.7,23.2,29.72,ESE,106,5.0,6.0,44,0.00,CLR,,0.00,WeatherDisplay:10.37,2013-01-20 10:35:00,
2013-01-20 05:40:00,43.7,23.2,29.72,SE,128,5.0,5.0,44,0.00,CLR,,0.00,WeatherDisplay:10.37,2013-01-20 10:40:00,
2013-01-20 05:45:00,43.7,23.2,29.72,ESE,114,3.0,5.0,44,0.00,CLR,,0.00,WeatherDisplay:10.37,2013-01-20 10:45:00,
2013-01-20 05:50:00,43.6,23.1,29.71,NNE,31,0.0,5.0,44,0.00,CLR,,0.00,WeatherDisplay:10.37,2013-01-20 10:50:00,
2013-01-20 05:55:00,43.3,22.8,29.72,NE,41,0.0,0.0,44,0.00,CLR,,0.00,WeatherDisplay:10.37,2013-01-20 10:55:00,
2013-01-20 06:00:00,43.2,22.7,29.72,East,99,2.0,2.0,44,0.00,CLR,,0.00,WeatherDisplay:10.37,2013-01-20 11:00:00,
2013-01-20 06:05:00,43.0,23.1,29.72,East,81,2.0,2.0,45,0.00,CLR,,0.00,WeatherDisplay:10.37,2013-01-20 11:05:00,
2013-01-20 06:10:00,43.0,23.1,29.72,East,97,1.0,4.0,45,0.00,CLR,,0.00,WeatherDisplay:10.37,2013-01-20 11:10:00,
2013-01-20 06:15:00,42.9,23.5,29.72,SE,130,5.0,5.0,46,0.00,CLR,,0.00,WeatherDisplay:10.37,2013-01-20 11:15:00,
2013-01-20 06:20:00,42.8,23.4,29.72,ESE,117,2.0,5.0,46,0.00,CLR,,0.00,WeatherDisplay:10.37,2013-01-20 11:20:00,
2013-01-20 06:25:00,42.4,23.1,29.73,North,7,0.0,0.0,46,0.00,CLR,,0.00,WeatherDisplay:10.37,2013-01-20 11:25:00,
2013-01-20 06:30:00,42.3,23.0,29.73,North,350,2.0,2.0,46,0.00,CLR,,0.00,WeatherDisplay:10.37,2013-01-20 11:30:00,
2013-01-20 06:35:00,42.1,23.3,29.74,NW,312,1.0,2.0,47,0.00,CLR,,0.00,WeatherDisplay:10.37,2013-01-20 11:35:00,
2013-01-20 06:40:00,41.9,23.1,29.74,SE,128,2.0,4.0,47,0.00,CLR,,0.00,WeatherDisplay:10.37,2013-01-20 11:40:00,
2013-01-20 06:45:00,41.9,23.1,29.74,ESE,112,0.0,4.0,47,0.00,CLR,,0.00,WeatherDisplay:10.37,2013-01-20 11:45:00,
2013-01-20 06:50:00,41.9,23.1,29.75,ESE,113,0.0,4.0,47,0.00,CLR,,0.00,WeatherDisplay:10.37,2013-01-20 11:50:00,
2013-01-20 06:55:00,41.9,23.6,29.75,ESE,113,1.0,4.0,48,0.00,CLR,,0.00,WeatherDisplay:10.37,2013-01-20 11:55:00,
2013-01-20 07:00:00,41.9,23.6,29.75,ESE,117,0.0,1.0,48,0.00,CLR,,0.00,WeatherDisplay:10.37,2013-01-20 12:00:00,
2013-01-20 07:05:00,41.9,24.6,29.76,SE,142,0.0,5.0,50,0.00,CLR,,0.00,WeatherDisplay:10.37,2013-01-20 12:05:00,
2013-01-20 07:10:00,41.7,23.9,29.75,SSE,147,1.0,5.0,49,0.00,CLR,,0.00,WeatherDisplay:10.37,2013-01-20 12:10:00,
2013-01-20 07:15:00,41.7,23.9,29.76,SE,140,0.0,4.0,49,0.00,CLR,,0.00,WeatherDisplay:10.37,2013-01-20 12:15:00,
2013-01-20 07:20:00,41.5,23.3,29.76,SSE,154,1.0,4.0,48,0.00,CLR,,0.00,WeatherDisplay:10.37,2013-01-20 12:20:00,
2013-01-20 07:25:00,41.5,23.3,29.76,NNE,17,0.0,4.0,48,0.00,CLR,,0.00,WeatherDisplay:10.37,2013-01-20 12:25:00,
2013-01-20 07:30:00,41.4,23.1,29.77,NE,45,0.0,0.0,48,0.00,CLR,,0.00,WeatherDisplay:10.37,2013-01-20 12:30:00,
2013-01-20 07:35:00,41.3,23.0,29.78,East,88,0.0,0.0,48,0.00,CLR,,0.00,WeatherDisplay:10.37,2013-01-20 12:35:00,
2013-01-20 07:40:00,41.2,21.9,29.78,SE,144,1.0,2.0,46,0.00,CLR,,0.00,WeatherDisplay:10.37,2013-01-20 12:40:00,
2013-01-20 07:45:00,40.6,19.9,29.78,SSE,147,1.0,1.0,43,0.00,CLR,,0.00,WeatherDisplay:10.37,2013-01-20 12:45:00,
2013-01-20 07:50:00,40.4,17.9,29.78,East,99,1.0,1.0,40,0.00,CLR,,0.00,WeatherDisplay:10.37,2013-01-20 12:50:00,
2013-01-20 08:00:00,39.5,14.7,29.81,South,174,1.0,2.0,36,0.00,CLR,,0.00,WeatherDisplay:10.37,2013-01-20 13:00:00,
2013-01-20 08:05:00,38.8,13.5,29.81,WNW,299,1.0,2.0,35,0.00,CLR,,0.00,WeatherDisplay:10.37,2013-01-20 13:05:00,
2013-01-20 08:10:00,38.3,12.3,29.81,NW,316,1.0,2.0,34,0.00,CLR,,0.00,WeatherDisplay:10.37,2013-01-20 13:10:00,
2013-01-20 08:20:00,37.8,11.9,29.82,ESE,109,0.0,0.0,34,0.00,CLR,,0.00,WeatherDisplay:10.37,2013-01-20 13:20:00,
2013-01-20 08:25:00,37.6,11.7,29.83,NW,304,0.0,0.0,34,0.00,CLR,,0.00,WeatherDisplay:10.37,2013-01-20 13:25:00,
2013-01-20 08:30:00,37.6,12.4,29.84,NW,310,0.0,0.0,35,0.00,CLR,,0.00,WeatherDisplay:10.37,2013-01-20 13:30:00,
2013-01-20 08:40:00,38.1,12.8,29.85,WSW,250,0.0,0.0,35,0.00,CLR,,0.00,WeatherDisplay:10.37,2013-01-20 13:40:00,
2013-01-20 08:45:00,38.4,12.4,29.85,SSW,212,0.0,0.0,34,0.00,CLR,,0.00,WeatherDisplay:10.37,2013-01-20 13:45:00,
2013-01-20 08:50:00,38.7,12.0,29.85,SSW,196,0.0,0.0,33,0.00,CLR,,0.00,WeatherDisplay:10.37,2013-01-20 13:50:00,
2013-01-20 08:55:00,39.0,11.6,29.85,North,3,0.0,0.0,32,0.00,CLR,,0.00,WeatherDisplay:10.37,2013-01-20 13:55:00,
2013-01-20 09:00:00,39.4,10.5,29.86,NNW,347,0.0,0.0,30,0.00,CLR,,0.00,WeatherDisplay:10.37,2013-01-20 14:00:00,
2013-01-20 09:05:00,39.3,9.6,29.86,NW,316,2.0,4.0,29,0.00,CLR,,0.00,WeatherDisplay:10.37,2013-01-20 14:05:00,
2013-01-20 09:15:00,39.0,6.1,29.87,WSW,256,0.0,0.0,25,0.00,CLR,,0.00,WeatherDisplay:10.37,2013-01-20 14:15:00,
2013-01-20 09:25:00,38.8,3.2,29.87,WSW,241,0.0,0.0,22,0.00,CLR,,0.00,WeatherDisplay:10.37,2013-01-20 14:25:00,
2013-01-20 09:30:00,38.5,-0.3,29.88,SW,227,1.0,2.0,19,0.00,CLR,,0.00,WeatherDisplay:10.37,2013-01-20 14:30:00,
2013-01-20 09:35:00,38.1,-0.6,29.88,SSW,202,1.0,5.0,19,0.00,CLR,,0.00,WeatherDisplay:10.37,2013-01-20 14:35:00,
2013-01-20 09:40:00,37.8,-0.9,29.89,SE,135,0.0,5.0,19,0.00,CLR,,0.00,WeatherDisplay:10.37,2013-01-20 14:40:00,
2013-01-20 09:45:00,37.8,-0.9,29.89,SE,130,0.0,1.0,19,0.00,CLR,,0.00,WeatherDisplay:10.37,2013-01-20 14:45:00,
2013-01-20 09:50:00,37.6,-1.0,29.90,SE,128,0.0,1.0,19,0.00,CLR,,0.00,WeatherDisplay:10.37,2013-01-20 14:50:00,
2013-01-20 09:55:00,37.4,-1.2,29.90,West,274,1.0,1.0,19,0.00,CLR,,0.00,WeatherDisplay:10.37,2013-01-20 14:55:00,
2013-01-20 10:05:00,37.0,-1.5,29.90,North,5,0.0,1.0,19,0.00,CLR,,0.00,WeatherDisplay:10.37,2013-01-20 15:05:00,
2013-01-20 10:10:00,37.0,-1.5,29.90,SE,124,1.0,4.0,19,0.00,CLR,,0.00,WeatherDisplay:10.37,2013-01-20 15:10:00,
2013-01-20 10:15:00,36.9,-1.6,29.90,SSE,151,0.0,2.0,19,0.00,CLR,,0.00,WeatherDisplay:10.37,2013-01-20 15:15:00,
2013-01-20 10:20:00,36.5,-1.9,29.91,East,97,0.0,0.0,19,0.00,CLR,,0.00,WeatherDisplay:10.37,2013-01-20 15:20:00,
2013-01-20 10:25:00,36.5,-1.9,29.91,ENE,73,0.0,2.0,19,0.00,CLR,,0.00,WeatherDisplay:10.37,2013-01-20 15:25:00,
2013-01-20 10:30:00,36.3,-2.1,29.91,SW,218,0.0,0.0,19,0.00,CLR,,0.00,WeatherDisplay:10.37,2013-01-20 15:30:00,
2013-01-20 10:40:00,36.3,-2.1,29.92,SE,144,0.0,2.0,19,0.00,CLR,,0.00,WeatherDisplay:10.37,2013-01-20 15:40:00,
2013-01-20 10:45:00,36.5,-2.0,29.92,ENE,78,0.0,5.0,19,0.00,CLR,,0.00,WeatherDisplay:10.37,2013-01-20 15:45:00,
2013-01-20 10:50:00,36.5,-1.9,29.93,NW,310,0.0,5.0,19,0.00,CLR,,0.00,WeatherDisplay:10.37,2013-01-20 15:50:00,
2013-01-20 10:55:00,36.5,-1.9,29.93,NW,314,1.0,1.0,19,0.00,CLR,,0.00,WeatherDisplay:10.37,2013-01-20 15:55:00,
2013-01-20 11:00:00,36.7,-1.8,29.93,ENE,71,1.0,3.0,19,0.00,CLR,,0.00,WeatherDisplay:10.37,2013-01-20 16:00:00,
2013-01-20 11:05:00,36.5,-1.9,29.93,NNE,21,0.0,3.0,19,0.00,CLR,,0.00,WeatherDisplay:10.37,2013-01-20 16:05:00,
2013-01-20 11:10:00,36.5,-1.9,29.94,North,352,0.0,0.0,19,0.00,CLR,,0.00,WeatherDisplay:10.37,2013-01-20 16:10:00,
2013-01-20 11:15:00,36.3,-2.1,29.94,South,188,0.0,2.0,19,0.00,CLR,,0.00,WeatherDisplay:10.37,2013-01-20 16:15:00,
2013-01-20 11:20:00,36.3,-2.1,29.94,ESE,102,0.0,2.0,19,0.00,CLR,,0.00,WeatherDisplay:10.37,2013-01-20 16:20:00,
2013-01-20 11:25:00,36.2,-2.2,29.94,ENE,74,0.0,0.0,19,0.00,CLR,,0.00,WeatherDisplay:10.37,2013-01-20 16:25:00,
2013-01-20 11:30:00,36.1,-2.2,29.94,North,356,1.0,2.0,19,0.00,CLR,,0.00,WeatherDisplay:10.37,2013-01-20 16:30:00,
2013-01-20 11:35:00,36.0,-2.4,29.95,NW,320,0.0,0.0,19,0.00,CLR,,0.00,WeatherDisplay:10.37,2013-01-20 16:35:00,
2013-01-20 11:40:00,36.1,-2.2,29.95,SE,132,0.0,5.0,19,0.00,CLR,,0.00,WeatherDisplay:10.37,2013-01-20 16:40:00,
2013-01-20 11:45:00,36.0,-2.4,29.95,East,100,1.0,5.0,19,0.00,CLR,,0.00,WeatherDisplay:10.37,2013-01-20 16:45:00,
2013-01-20 11:50:00,35.8,-2.5,29.95,East,95,1.0,3.0,19,0.00,CLR,,0.00,WeatherDisplay:10.37,2013-01-20 16:50:00,
2013-01-20 11:55:00,35.8,-2.5,29.95,NE,45,2.0,2.0,19,0.00,CLR,,0.00,WeatherDisplay:10.37,2013-01-20 16:55:00,
2013-01-20 12:00:00,35.6,-2.7,29.95,NW,309,2.0,6.0,19,0.00,CLR,,0.00,WeatherDisplay:10.37,2013-01-20 17:00:00,
2013-01-20 12:05:00,35.4,-2.8,29.95,WNW,297,0.0,0.0,19,0.00,CLR,,0.00,WeatherDisplay:10.37,2013-01-20 17:05:00,
2013-01-20 12:10:00,35.6,-2.7,29.95,NE,51,1.0,5.0,19,0.00,CLR,,0.00,WeatherDisplay:10.37,2013-01-20 17:10:00,
2013-01-20 12:15:00,35.8,-2.5,29.95,ESE,116,2.0,5.0,19,0.00,CLR,,0.00,WeatherDisplay:10.37,2013-01-20 17:15:00,
2013-01-20 12:20:00,36.0,-2.4,29.95,SE,133,1.0,1.0,19,0.00,CLR,,0.00,WeatherDisplay:10.37,2013-01-20 17:20:00,
2013-01-20 12:25:00,36.2,-2.2,29.95,NNW,328,3.0,4.0,19,0.00,CLR,,0.00,WeatherDisplay:10.37,2013-01-20 17:25:00,
2013-01-20 12:30:00,36.5,-1.9,29.95,NW,305,0.0,0.0,19,0.00,CLR,,0.00,WeatherDisplay:10.37,2013-01-20 17:30:00,
2013-01-20 12:35:00,36.5,-2.0,29.95,South,189,2.0,5.0,19,0.00,CLR,,0.00,WeatherDisplay:10.37,2013-01-20 17:35:00,
2013-01-20 12:40:00,36.1,-2.2,29.95,South,183,0.0,0.0,19,0.00,CLR,,0.00,WeatherDisplay:10.37,2013-01-20 17:40:00,
2013-01-20 12:45:00,36.0,-2.4,29.96,NNW,336,3.0,5.0,19,0.00,CLR,,0.00,WeatherDisplay:10.37,2013-01-20 17:45:00,
2013-01-20 12:50:00,36.1,-2.2,29.96,NW,312,0.0,5.0,19,0.00,CLR,,0.00,WeatherDisplay:10.37,2013-01-20 17:50:00,
2013-01-20 12:55:00,36.3,-2.1,29.96,West,277,0.0,6.0,19,0.00,CLR,,0.00,WeatherDisplay:10.37,2013-01-20 17:55:00,
2013-01-20 13:00:00,36.5,-1.9,29.96,SSW,209,1.0,6.0,19,0.00,CLR,,0.00,WeatherDisplay:10.37,2013-01-20 18:00:00,
2013-01-20 13:05:00,36.9,-1.6,29.96,South,184,0.0,0.0,19,0.00,CLR,,0.00,WeatherDisplay:10.37,2013-01-20 18:05:00,
2013-01-20 13:10:00,37.0,-1.5,29.96,SE,146,0.0,2.0,19,0.00,CLR,,0.00,WeatherDisplay:10.37,2013-01-20 18:10:00,
2013-01-20 13:15:00,37.0,-1.5,29.96,NNW,334,1.0,2.0,19,0.00,CLR,,0.00,WeatherDisplay:10.37,2013-01-20 18:15:00,
2013-01-20 13:20:00,37.0,-1.5,29.96,North,3,0.0,2.0,19,0.00,CLR,,0.00,WeatherDisplay:10.37,2013-01-20 18:20:00,
2013-01-20 13:25:00,37.0,-1.5,29.96,SE,135,0.0,2.0,19,0.00,CLR,,0.00,WeatherDisplay:10.37,2013-01-20 18:25:00,
2013-01-20 13:30:00,37.0,-1.5,29.96,SSE,161,0.0,1.0,19,0.00,CLR,,0.00,WeatherDisplay:10.37,2013-01-20 18:30:00,
2013-01-20 13:35:00,36.9,-1.6,29.96,SW,219,0.0,1.0,19,0.00,CLR,,0.00,WeatherDisplay:10.37,2013-01-20 18:35:00,
2013-01-20 13:40:00,36.9,-1.6,29.97,WSW,258,0.0,0.0,19,0.00,CLR,,0.00,WeatherDisplay:10.37,2013-01-20 18:40:00,
2013-01-20 13:45:00,37.0,-1.5,29.97,SSW,203,0.0,0.0,19,0.00,CLR,,0.00,WeatherDisplay:10.37,2013-01-20 18:45:00,
2013-01-20 13:50:00,36.8,-1.7,29.97,South,185,0.0,0.0,19,0.00,CLR,,0.00,WeatherDisplay:10.37,2013-01-20 18:50:00,
2013-01-20 13:55:00,36.5,-1.9,29.97,SSW,213,0.0,0.0,19,0.00,CLR,,0.00,WeatherDisplay:10.37,2013-01-20 18:55:00,
2013-01-20 14:00:00,36.0,-2.4,29.97,NW,319,2.0,2.0,19,0.00,CLR,,0.00,WeatherDisplay:10.37,2013-01-20 19:00:00,
2013-01-20 14:05:00,35.6,-2.7,29.97,North,1,0.0,3.0,19,0.00,CLR,,0.00,WeatherDisplay:10.37,2013-01-20 19:05:00,
2013-01-20 14:10:00,35.2,-3.0,29.98,SE,130,0.0,3.0,19,0.00,CLR,,0.00,WeatherDisplay:10.37,2013-01-20 19:10:00,
2013-01-20 14:15:00,35.1,-3.1,29.98,SE,141,5.0,5.0,19,0.00,CLR,,0.00,WeatherDisplay:10.37,2013-01-20 19:15:00,
2013-01-20 14:20:00,34.5,-3.6,29.98,WNW,292,0.0,5.0,19,0.00,CLR,,0.00,WeatherDisplay:10.37,2013-01-20 19:20:00,
2013-01-20 14:25:00,34.3,-3.7,29.98,WNW,301,0.0,0.0,19,0.00,CLR,,0.00,WeatherDisplay:10.37,2013-01-20 19:25:00,
2013-01-20 14:30:00,34.2,-3.9,29.98,WSW,240,0.0,0.0,19,0.00,CLR,,0.00,WeatherDisplay:10.37,2013-01-20 19:30:00,
2013-01-20 14:35:00,34.0,-4.0,29.98,SSW,199,0.0,2.0,19,0.00,CLR,,0.00,WeatherDisplay:10.37,2013-01-20 19:35:00,
2013-01-20 14:40:00,33.7,-4.3,29.98,East,79,0.0,2.0,19,0.00,CLR,,0.00,WeatherDisplay:10.37,2013-01-20 19:40:00,
2013-01-20 14:45:00,33.4,-4.5,29.98,ESE,107,0.0,1.0,19,0.00,CLR,,0.00,WeatherDisplay:10.37,2013-01-20 19:45:00,
2013-01-20 14:50:00,33.3,-4.6,29.98,SSW,201,0.0,0.0,19,0.00,CLR,,0.00,WeatherDisplay:10.37,2013-01-20 19:50:00,
2013-01-20 14:55:00,32.9,-4.9,29.98,South,190,0.0,0.0,19,0.00,CLR,,0.00,WeatherDisplay:10.37,2013-01-20 19:55:00,
2013-01-20 15:00:00,32.7,-5.1,29.99,SSE,167,0.0,0.0,19,0.00,CLR,,0.00,WeatherDisplay:10.37,2013-01-20 20:00:00,
2013-01-20 15:05:00,32.6,-5.2,29.99,WNW,303,0.0,0.0,19,0.00,CLR,,0.00,WeatherDisplay:10.37,2013-01-20 20:05:00,
2013-01-20 15:10:00,32.4,-5.4,29.99,NW,314,0.0,1.0,19,0.00,CLR,,0.00,WeatherDisplay:10.37,2013-01-20 20:10:00,
2013-01-20 15:15:00,32.2,-5.5,29.99,WNW,295,0.0,1.0,19,0.00,CLR,,0.00,WeatherDisplay:10.37,2013-01-20 20:15:00,
2013-01-20 15:20:00,31.9,-5.8,30.00,NW,318,0.0,3.0,19,0.00,CLR,,0.00,WeatherDisplay:10.37,2013-01-20 20:20:00,
2013-01-20 15:25:00,31.6,-6.0,30.00,NNW,347,0.0,3.0,19,0.00,CLR,,0.00,WeatherDisplay:10.37,2013-01-20 20:25:00,
2013-01-20 15:30:00,31.5,-6.1,30.00,NW,324,1.0,2.0,19,0.00,CLR,,0.00,WeatherDisplay:10.37,2013-01-20 20:30:00,
2013-01-20 15:35:00,31.1,-6.4,30.00,West,274,0.0,1.0,19,0.00,CLR,,0.00,WeatherDisplay:10.37,2013-01-20 20:35:00,
2013-01-20 15:40:00,30.8,-6.7,30.00,WSW,249,0.0,0.0,19,0.00,CLR,,0.00,WeatherDisplay:10.37,2013-01-20 20:40:00,
2013-01-20 15:45:00,30.6,-6.9,30.01,SW,224,0.0,2.0,19,0.00,CLR,,0.00,WeatherDisplay:10.37,2013-01-20 20:45:00,
2013-01-20 15:50:00,30.4,-7.0,30.00,East,101,0.0,2.0,19,0.00,CLR,,0.00,WeatherDisplay:10.37,2013-01-20 20:50:00,
2013-01-20 15:55:00,30.0,-7.3,30.00,SSE,167,0.0,0.0,19,0.00,CLR,,0.00,WeatherDisplay:10.37,2013-01-20 20:55:00,
2013-01-20 16:05:00,29.7,-7.6,30.00,WNW,293,0.0,0.0,19,0.00,CLR,,0.00,WeatherDisplay:10.37,2013-01-20 21:05:00,
2013-01-20 16:10:00,29.3,-7.9,30.00,WNW,292,0.0,0.0,19,0.00,CLR,,0.00,WeatherDisplay:10.37,2013-01-20 21:10:00,
2013-01-20 16:15:00,29.1,-8.1,30.00,SW,236,0.0,0.0,19,0.00,CLR,,0.00,WeatherDisplay:10.37,2013-01-20 21:15:00,
2013-01-20 16:20:00,28.8,-8.4,30.00,WSW,250,0.0,0.0,19,0.00,CLR,,0.00,WeatherDisplay:10.37,2013-01-20 21:20:00,
2013-01-20 16:25:00,28.6,-8.6,30.00,WNW,290,0.0,0.0,19,0.00,CLR,,0.00,WeatherDisplay:10.37,2013-01-20 21:25:00,
2013-01-20 16:30:00,28.2,-8.9,30.00,WNW,292,0.0,0.0,19,0.00,CLR,,0.00,WeatherDisplay:10.37,2013-01-20 21:30:00,
2013-01-20 16:35:00,27.7,-9.3,30.01,WSW,249,0.0,0.0,19,0.00,CLR,,0.00,WeatherDisplay:10.37,2013-01-20 21:35:00,
2013-01-20 16:40:00,27.5,-9.5,30.01,SSE,163,0.0,0.0,19,0.00,CLR,,0.00,WeatherDisplay:10.37,2013-01-20 21:40:00,
2013-01-20 16:45:00,27.3,-9.6,30.01,South,171,0.0,0.0,19,0.00,CLR,,0.00,WeatherDisplay:10.37,2013-01-20 21:45:00,
2013-01-20 16:50:00,27.1,-9.8,30.01,South,189,0.0,0.0,19,0.00,CLR,,0.00,WeatherDisplay:10.37,2013-01-20 21:50:00,
2013-01-20 16:55:00,27.1,-9.8,30.01,WSW,257,0.0,2.0,19,0.00,CLR,,0.00,WeatherDisplay:10.37,2013-01-20 21:55:00,
2013-01-20 17:00:00,26.9,-10.0,30.01,NNW,332,0.0,0.0,19,0.00,CLR,,0.00,WeatherDisplay:10.37,2013-01-20 22:00:00,
2013-01-20 17:05:00,26.8,-10.1,30.01,NNW,335,0.0,0.0,19,0.00,CLR,,0.00,WeatherDisplay:10.37,2013-01-20 22:05:00,
2013-01-20 17:10:00,26.4,-10.4,30.02,North,358,0.0,0.0,19,0.00,CLR,,0.00,WeatherDisplay:10.37,2013-01-20 22:10:00,
2013-01-20 17:15:00,26.2,-10.6,30.01,NNE,13,0.0,0.0,19,0.00,CLR,,0.00,WeatherDisplay:10.37,2013-01-20 22:15:00,
2013-01-20 17:20:00,25.9,-10.8,30.02,NNE,22,0.0,0.0,19,0.00,CLR,,0.00,WeatherDisplay:10.37,2013-01-20 22:20:00,
2013-01-20 17:25:00,25.7,-11.0,30.02,NNE,22,0.0,0.0,19,0.00,CLR,,0.00,WeatherDisplay:10.37,2013-01-20 22:25:00,
2013-01-20 17:30:00,25.4,-11.2,30.03,NNE,33,0.0,0.0,19,0.00,CLR,,0.00,WeatherDisplay:10.37,2013-01-20 22:30:00,
2013-01-20 17:35:00,25.2,-9.4,30.03,NNE,18,0.0,0.0,21,0.00,CLR,,0.00,WeatherDisplay:10.37,2013-01-20 22:35:00,
2013-01-20 17:40:00,25.0,-8.6,30.03,North,7,0.0,0.0,22,0.00,CLR,,0.00,WeatherDisplay:10.37,2013-01-20 22:40:00,
2013-01-20 17:45:00,24.7,-6.2,30.04,NNE,18,0.0,0.0,25,0.00,CLR,,0.00,WeatherDisplay:10.37,2013-01-20 22:45:00,
2013-01-20 17:50:00,24.4,-5.6,30.04,NNE,22,0.0,0.0,26,0.00,CLR,,0.00,WeatherDisplay:10.37,2013-01-20 22:50:00,
2013-01-20 17:55:00,24.2,-5.0,30.05,NNE,22,0.0,0.0,27,0.00,CLR,,0.00,WeatherDisplay:10.37,2013-01-20 22:55:00,
2013-01-20 18:00:00,24.0,-4.4,30.05,North,349,0.0,0.0,28,0.00,CLR,,0.00,WeatherDisplay:10.37,2013-01-20 23:00:00,
2013-01-20 18:05:00,23.8,-3.2,30.05,WNW,300,0.0,0.0,30,0.00,CLR,,0.00,WeatherDisplay:10.37,2013-01-20 23:05:00,
2013-01-20 18:10:00,23.5,-3.4,30.06,WNW,292,0.0,0.0,30,0.00,CLR,,0.00,WeatherDisplay:10.37,2013-01-20 23:10:00,
2013-01-20 18:15:00,23.4,-3.6,30.06,WNW,292,0.0,0.0,30,0.00,CLR,,0.00,WeatherDisplay:10.37,2013-01-20 23:15:00,
2013-01-20 18:20:00,23.2,-3.0,30.06,WNW,292,0.0,0.0,31,0.00,CLR,,0.00,WeatherDisplay:10.37,2013-01-20 23:20:00,
2013-01-20 18:25:00,23.0,-2.5,30.06,WNW,292,0.0,0.0,32,0.00,CLR,,0.00,WeatherDisplay:10.37,2013-01-20 23:25:00,
2013-01-20 18:30:00,22.5,-2.3,30.06,WNW,292,0.0,0.0,33,0.00,CLR,,0.00,WeatherDisplay:10.37,2013-01-20 23:30:00,
2013-01-20 18:35:00,22.5,-1.7,30.06,WNW,292,0.0,0.0,34,0.00,CLR,,0.00,WeatherDisplay:10.37,2013-01-20 23:35:00,
2013-01-20 18:40:00,22.3,-1.9,30.06,WNW,292,0.0,0.0,34,0.00,CLR,,0.00,WeatherDisplay:10.37,2013-01-20 23:40:00,
2013-01-20 18:45:00,22.3,-1.3,30.06,WNW,289,0.0,0.0,35,0.00,CLR,,0.00,WeatherDisplay:10.37,2013-01-20 23:45:00,
2013-01-20 18:50:00,22.1,-1.4,30.06,WNW,289,0.0,0.0,35,0.00,CLR,,0.00,WeatherDisplay:10.37,2013-01-20 23:50:00,
2013-01-20 18:55:00,21.9,-1.6,30.06,WNW,292,0.0,0.0,35,0.00,CLR,,0.00,WeatherDisplay:10.37,2013-01-20 23:55:00,
2013-01-20 19:00:00,21.7,-1.2,30.06,WNW,292,0.0,0.0,36,0.00,CLR,,0.00,WeatherDisplay:10.37,2013-01-21 00:00:00,
2013-01-20 19:05:00,21.6,-1.3,30.06,WNW,292,0.0,0.0,36,0.00,CLR,,0.00,WeatherDisplay:10.37,2013-01-21 00:05:00,
2013-01-20 19:10:00,21.3,-1.0,30.05,WNW,292,0.0,0.0,37,0.00,CLR,,0.00,WeatherDisplay:10.37,2013-01-21 00:10:00,
2013-01-20 19:15:00,20.9,-1.3,30.06,WNW,292,0.0,0.0,37,0.00,CLR,,0.00,WeatherDisplay:10.37,2013-01-21 00:15:00,
2013-01-20 19:20:00,20.7,-1.0,30.06,WNW,292,0.0,0.0,38,0.00,CLR,,0.00,WeatherDisplay:10.37,2013-01-21 00:20:00,
2013-01-20 19:25:00,20.4,-1.2,30.06,WNW,292,0.0,0.0,38,0.00,CLR,,0.00,WeatherDisplay:10.37,2013-01-21 00:25:00,
2013-01-20 19:30:00,20.1,-0.9,30.07,WNW,292,0.0,0.0,39,0.00,CLR,,0.00,WeatherDisplay:10.37,2013-01-21 00:30:00,
2013-01-20 19:35:00,19.9,-1.1,30.07,WNW,292,0.0,0.0,39,0.00,CLR,,0.00,WeatherDisplay:10.37,2013-01-21 00:35:00,
2013-01-20 19:40:00,19.8,-1.2,30.08,WNW,292,0.0,0.0,39,0.00,CLR,,0.00,WeatherDisplay:10.37,2013-01-21 00:40:00,
2013-01-20 19:45:00,19.6,-0.9,30.08,WNW,292,0.0,0.0,40,0.00,CLR,,0.00,WeatherDisplay:10.37,2013-01-21 00:45:00,
2013-01-20 19:50:00,19.4,-1.0,30.08,WNW,292,0.0,0.0,40,0.00,CLR,,0.00,WeatherDisplay:10.37,2013-01-21 00:50:00,
2013-01-20 19:55:00,18.9,-0.9,30.08,WNW,292,0.0,0.0,41,0.00,CLR,,0.00,WeatherDisplay:10.37,2013-01-21 00:55:00,
2013-01-20 20:00:00,19.0,-0.8,30.08,WNW,282,0.0,0.0,41,0.00,CLR,,0.00,WeatherDisplay:10.37,2013-01-21 01:00:00,
2013-01-20 20:05:00,18.9,-0.5,30.09,West,271,0.0,0.0,42,0.00,CLR,,0.00,WeatherDisplay:10.37,2013-01-21 01:05:00,
2013-01-20 20:10:00,18.9,-0.5,30.09,West,270,0.0,0.0,42,0.00,CLR,,0.00,WeatherDisplay:10.37,2013-01-21 01:10:00,
2013-01-20 20:15:00,18.7,-0.1,30.09,West,270,0.0,0.0,43,0.00,CLR,,0.00,WeatherDisplay:10.37,2013-01-21 01:15:00,
2013-01-20 20:20:00,18.9,0.5,30.09,West,270,0.0,0.0,44,0.00,CLR,,0.00,WeatherDisplay:10.37,2013-01-21 01:20:00,
2013-01-20 20:25:00,18.8,0.4,30.09,West,270,0.0,0.0,44,0.00,CLR,,0.00,WeatherDisplay:10.37,2013-01-21 01:25:00,
2013-01-20 20:30:00,18.9,0.5,30.09,West,270,0.0,0.0,44,0.00,CLR,,0.00,WeatherDisplay:10.37,2013-01-21 01:30:00,
2013-01-20 20:35:00,18.9,1.0,30.08,West,270,0.0,0.0,45,0.00,CLR,,0.00,WeatherDisplay:10.37,2013-01-21 01:35:00,
2013-01-20 20:40:00,18.9,1.0,30.08,West,270,0.0,0.0,45,0.00,CLR,,0.00,WeatherDisplay:10.37,2013-01-21 01:40:00,
2013-01-20 20:45:00,18.9,1.0,30.09,West,270,0.0,0.0,45,0.00,CLR,,0.00,WeatherDisplay:10.37,2013-01-21 01:45:00,
2013-01-20 20:50:00,18.9,1.0,30.09,West,270,0.0,0.0,45,0.00,CLR,,0.00,WeatherDisplay:10.37,2013-01-21 01:50:00,
2013-01-20 20:55:00,18.9,1.0,30.09,West,270,0.0,0.0,45,0.00,CLR,,0.00,WeatherDisplay:10.37,2013-01-21 01:55:00,
2013-01-20 21:00:00,18.7,0.8,30.09,West,270,0.0,0.0,45,0.00,CLR,,0.00,WeatherDisplay:10.37,2013-01-21 02:00:00,
2013-01-20 21:05:00,18.5,0.7,30.09,West,270,0.0,0.0,45,0.00,CLR,,0.00,WeatherDisplay:10.37,2013-01-21 02:05:00,
2013-01-20 21:10:00,18.3,0.5,30.09,West,270,0.0,0.0,45,0.00,CLR,,0.00,WeatherDisplay:10.37,2013-01-21 02:10:00,
2013-01-20 21:15:00,18.3,0.5,30.09,West,270,0.0,0.0,45,0.00,CLR,,0.00,WeatherDisplay:10.37,2013-01-21 02:15:00,
2013-01-20 21:20:00,18.1,0.3,30.09,West,270,0.0,0.0,45,0.00,CLR,,0.00,WeatherDisplay:10.37,2013-01-21 02:20:00,
2013-01-20 21:25:00,18.0,0.6,30.09,West,270,0.0,0.0,46,0.00,CLR,,0.00,WeatherDisplay:10.37,2013-01-21 02:25:00,
2013-01-20 21:30:00,18.0,0.6,30.09,West,270,0.0,0.0,46,0.00,CLR,,0.00,WeatherDisplay:10.37,2013-01-21 02:30:00,
2013-01-20 21:40:00,17.8,0.9,30.08,West,270,0.0,0.0,47,0.00,CLR,,0.00,WeatherDisplay:10.37,2013-01-21 02:40:00,
2013-01-20 21:50:00,17.8,0.9,30.08,West,270,0.0,0.0,47,0.00,CLR,,0.00,WeatherDisplay:10.37,2013-01-21 02:50:00,
2013-01-20 21:55:00,17.8,0.9,30.08,West,270,0.0,0.0,47,0.00,CLR,,0.00,WeatherDisplay:10.37,2013-01-21 02:55:00,
2013-01-20 22:00:00,17.8,0.9,30.08,West,270,0.0,0.0,47,0.00,CLR,,0.00,WeatherDisplay:10.37,2013-01-21 03:00:00,
2013-01-20 22:05:00,17.9,1.5,30.08,West,270,0.0,0.0,48,0.00,CLR,,0.00,WeatherDisplay:10.37,2013-01-21 03:05:00,
2013-01-20 22:10:00,18.0,1.5,30.07,West,270,0.0,0.0,48,0.00,CLR,,0.00,WeatherDisplay:10.37,2013-01-21 03:10:00,
2013-01-20 22:15:00,18.3,2.3,30.08,West,270,0.0,0.0,49,0.00,CLR,,0.00,WeatherDisplay:10.37,2013-01-21 03:15:00,
2013-01-20 22:20:00,18.3,2.3,30.08,West,270,0.0,0.0,49,0.00,CLR,,0.00,WeatherDisplay:10.37,2013-01-21 03:20:00,
2013-01-20 22:30:00,18.7,2.7,30.08,West,270,0.0,0.0,49,0.00,CLR,,0.00,WeatherDisplay:10.37,2013-01-21 03:30:00,
2013-01-20 22:35:00,18.9,2.8,30.08,West,270,0.0,0.0,49,0.00,CLR,,0.00,WeatherDisplay:10.37,2013-01-21 03:35:00,
2013-01-20 22:40:00,18.9,2.8,30.08,West,270,0.0,0.0,49,0.00,CLR,,0.00,WeatherDisplay:10.37,2013-01-21 03:40:00,
2013-01-20 22:45:00,19.0,3.0,30.08,West,270,0.0,0.0,49,0.00,CLR,,0.00,WeatherDisplay:10.37,2013-01-21 03:45:00,
2013-01-20 22:50:00,19.0,3.0,30.08,West,270,0.0,0.0,49,0.00,CLR,,0.00,WeatherDisplay:10.37,2013-01-21 03:50:00,
2013-01-20 22:55:00,19.0,3.0,30.08,West,270,0.0,0.0,49,0.00,CLR,,0.00,WeatherDisplay:10.37,2013-01-21 03:55:00,
2013-01-20 23:00:00,19.1,3.0,30.08,West,270,0.0,0.0,49,0.00,CLR,,0.00,WeatherDisplay:10.37,2013-01-21 04:00:00,
2013-01-20 23:05:00,19.3,3.2,30.07,West,270,0.0,0.0,49,0.00,CLR,,0.00,WeatherDisplay:10.37,2013-01-21 04:05:00,
2013-01-20 23:10:00,19.5,3.4,30.08,West,270,0.0,0.0,49,0.00,CLR,,0.00,WeatherDisplay:10.37,2013-01-21 04:10:00,
2013-01-20 23:15:00,19.6,3.5,30.08,West,270,0.0,0.0,49,0.00,CLR,,0.00,WeatherDisplay:10.37,2013-01-21 04:15:00,
2013-01-20 23:20:00,19.8,3.7,30.08,West,270,0.0,0.0,49,0.00,CLR,,0.00,WeatherDisplay:10.37,2013-01-21 04:20:00,
2013-01-20 23:25:00,19.8,3.7,30.08,West,270,0.0,0.0,49,0.00,CLR,,0.00,WeatherDisplay:10.37,2013-01-21 04:25:00,
2013-01-20 23:30:00,19.8,3.2,30.07,West,270,0.0,0.0,48,0.00,CLR,,0.00,WeatherDisplay:10.37,2013-01-21 04:30:00,
2013-01-20 23:35:00,19.9,3.4,30.08,West,270,0.0,0.0,48,0.00,CLR,,0.00,WeatherDisplay:10.37,2013-01-21 04:35:00,
2013-01-20 23:40:00,20.1,3.5,30.07,West,270,0.0,0.0,48,0.00,CLR,,0.00,WeatherDisplay:10.37,2013-01-21 04:40:00,
2013-01-20 23:45:00,20.1,3.5,30.07,West,270,0.0,0.0,48,0.00,CLR,,0.00,WeatherDisplay:10.37,2013-01-21 04:45:00,
2013-01-20 23:50:00,20.1,3.5,30.07,West,270,0.0,0.0,48,0.00,CLR,,0.00,WeatherDisplay:10.37,2013-01-21 04:50:00,
2013-01-20 23:55:00,20.3,3.7,30.07,West,270,0.0,0.0,48,0.00,CLR,,0.00,WeatherDisplay:10.37,2013-01-21 04:55:00,